TimePDT,TemperatureF,Dew PointF,Humidity,Sea Level PressureIn,VisibilityMPH,Wind Direction,Wind SpeedMPH,Gust SpeedMPH,PrecipitationIn,Events,Conditions,WindDirDegrees,DateUTC
12:31 AM,44.6,33.8,66,29.78,10.0,South,12.7,19.6,N/A,,Mostly Cloudy,190,2013-04-13 07:31:00
12:53 AM,43.0,34.0,71,29.79,10.0,SSW,11.5,16.1,N/A,,Mostly Cloudy,210,2013-04-13 07:53:00
1:53 AM,42.1,34.0,73,29.81,10.0,Variable,5.8,-,N/A,,Overcast,0,2013-04-13 08:53:00
2:53 AM,41.0,33.1,73,29.83,10.0,SW,5.8,-,N/A,,Mostly Cloudy,220,2013-04-13 09:53:00
3:07 AM,42.8,33.8,70,29.84,10.0,SSW,6.9,-,N/A,,Overcast,200,2013-04-13 10:07:00
3:53 AM,39.9,32.0,73,29.86,10.0,South,5.8,-,N/A,,Clear,180,2013-04-13 10:53:00
4:53 AM,41.0,30.9,67,29.89,10.0,SSE,4.6,-,N/A,,Overcast,160,2013-04-13 11:53:00
5:53 AM,39.9,32.0,73,29.89,10.0,SSE,10.4,-,N/A,,Overcast,160,2013-04-13 12:53:00
6:53 AM,39.9,32.0,73,29.89,10.0,SE,5.8,-,N/A,,Mostly Cloudy,140,2013-04-13 13:53:00
7:12 AM,41.0,32.0,70,29.89,10.0,SE,8.1,-,N/A,,Mostly Cloudy,140,2013-04-13 14:12:00
7:53 AM,42.1,33.1,70,29.90,10.0,SSW,6.9,-,N/A,,Overcast,200,2013-04-13 14:53:00
8:53 AM,43.0,34.0,71,29.90,10.0,SSW,12.7,18.4,N/A,,Overcast,200,2013-04-13 15:53:00
9:53 AM,44.1,36.0,73,29.90,10.0,South,13.8,21.9,N/A,,Overcast,190,2013-04-13 16:53:00
10:53 AM,45.0,36.0,71,29.90,10.0,South,15.0,21.9,N/A,,Overcast,190,2013-04-13 17:53:00
11:53 AM,46.0,37.0,71,29.91,10.0,South,12.7,24.2,N/A,,Overcast,190,2013-04-13 18:53:00
12:53 PM,46.9,37.9,71,29.91,10.0,South,12.7,23.0,N/A,,Mostly Cloudy,190,2013-04-13 19:53:00
1:53 PM,48.0,37.9,68,29.91,10.0,South,10.4,21.9,N/A,,Mostly Cloudy,190,2013-04-13 20:53:00
2:53 PM,48.0,37.0,66,29.91,10.0,SSW,12.7,-,0.00,Rain,Light Rain,200,2013-04-13 21:53:00
3:53 PM,48.9,37.9,66,29.91,10.0,South,16.1,21.9,0.00,,Overcast,180,2013-04-13 22:53:00
4:53 PM,51.8,37.4,58,29.89,10.0,SSW,11.5,23.0,N/A,,Mostly Cloudy,200,2013-04-13 23:53:00
5:53 PM,46.0,39.0,76,29.91,6.0,North,6.9,-,0.04,Rain,Rain,10,2013-04-14 00:53:00
6:53 PM,46.0,41.0,83,29.94,10.0,Calm,Calm,-,0.07,,Overcast,0,2013-04-14 01:53:00
7:53 PM,46.0,39.9,79,29.96,10.0,North,4.6,-,0.00,Rain,Light Rain,10,2013-04-14 02:53:00
8:53 PM,43.0,39.0,86,29.98,7.0,South,5.8,-,0.13,Rain,Rain,170,2013-04-14 03:53:00
9:53 PM,43.0,39.0,86,29.99,10.0,SE,6.9,-,0.06,,Overcast,140,2013-04-14 04:53:00
10:53 PM,43.0,39.0,86,30.01,10.0,ESE,5.8,-,N/A,,Mostly Cloudy,120,2013-04-14 05:53:00
11:53 PM,43.0,39.0,86,30.01,10.0,ESE,3.5,-,0.01,Rain,Light Rain,120,2013-04-14 06:53:00